User: anonymous   Login
Location: Camp Creek
(33.9000°N, 111.8167°W)
Time: 02:24:44
(UTC-07:00)
Language:

DELTA 2 R/B (1) - Orbit

View from above orbital plane
View from above orbital plane
View from above satellite
View from above satellite

Ground track
Ground track

The orbit data is extracted from the following two-line orbital elements,

1 27665U 03005C   15090.87247343  .00000101  00000-0  73749-4 0  9993
2 27665 039.5752 265.7248 0007537 047.7907 115.1977 14.28316204635320
Epoch (UTC): 31 March 2015 20:56:21
Eccentricity: 0.0007537
inclination: 39.5752°
perigee height: 792 km
apogee height: 803 km
right ascension of ascending node: 265.7248°
argument of perigee: 47.7907°
revolutions per day: 14.28316204
mean anomaly at epoch: 115.1977°
orbit number at epoch: 63532

The dashed part of the orbit path shows where the satellite is in the earth's shadow,  

DLR